TimeEDT,TemperatureF,Dew PointF,Humidity,Sea Level PressureIn,VisibilityMPH,Wind Direction,Wind SpeedMPH,Gust SpeedMPH,PrecipitationIn,Events,Conditions,WindDirDegrees,DateUTC
12:54 AM,46.0,39.0,76,29.66,10.0,SW,5.8,-,N/A,,Clear,230,2012-10-31 04:54:00
1:54 AM,44.1,37.9,79,29.67,10.0,SW,5.8,-,N/A,,Clear,220,2012-10-31 05:54:00
2:54 AM,44.1,37.0,76,29.68,10.0,SW,4.6,-,N/A,,Clear,230,2012-10-31 06:54:00
3:54 AM,42.1,36.0,79,29.68,10.0,SSW,5.8,-,N/A,,Clear,210,2012-10-31 07:54:00
4:54 AM,42.1,36.0,79,29.69,10.0,WSW,6.9,-,N/A,,Clear,240,2012-10-31 08:54:00
5:54 AM,41.0,36.0,82,29.71,10.0,SW,3.5,-,N/A,,Clear,230,2012-10-31 09:54:00
6:54 AM,41.0,36.0,82,29.72,10.0,SW,5.8,-,N/A,,Clear,220,2012-10-31 10:54:00
7:54 AM,41.0,37.0,86,29.73,10.0,SW,4.6,-,N/A,,Scattered Clouds,230,2012-10-31 11:54:00
8:54 AM,43.0,37.9,82,29.74,10.0,SW,4.6,-,N/A,,Clear,220,2012-10-31 12:54:00
9:54 AM,48.9,37.9,66,29.74,10.0,West,8.1,-,N/A,,Clear,270,2012-10-31 13:54:00
10:54 AM,54.0,37.9,55,29.74,10.0,West,9.2,-,N/A,,Clear,280,2012-10-31 14:54:00
11:54 AM,55.9,37.0,49,29.71,10.0,West,9.2,-,N/A,,Clear,270,2012-10-31 15:54:00
12:54 PM,57.9,36.0,44,29.69,10.0,WSW,12.7,19.6,N/A,,Clear,250,2012-10-31 16:54:00
1:54 PM,59.0,37.9,46,29.67,10.0,WSW,15.0,21.9,N/A,,Clear,240,2012-10-31 17:54:00
2:54 PM,60.1,37.9,44,29.66,10.0,WSW,12.7,20.7,N/A,,Mostly Cloudy,240,2012-10-31 18:54:00
3:54 PM,60.1,37.0,42,29.67,10.0,West,10.4,19.6,N/A,,Mostly Cloudy,270,2012-10-31 19:54:00
4:54 PM,57.9,37.9,47,29.67,10.0,WNW,9.2,-,N/A,,Mostly Cloudy,290,2012-10-31 20:54:00
5:54 PM,57.0,39.9,53,29.70,10.0,WNW,4.6,-,N/A,,Overcast,290,2012-10-31 21:54:00
6:54 PM,55.0,39.9,57,29.73,10.0,WNW,5.8,-,N/A,,Overcast,300,2012-10-31 22:54:00
8:54 PM,52.0,39.9,63,29.76,10.0,WSW,3.5,-,N/A,,Overcast,240,2012-11-01 00:54:00